Home > Weather > Santander > Past weeks

Flag for Spain Past Weather in Santander, Spain — Yesterday and Last 2 Weeks

Now
61 °F

Passing clouds.


Feels Like: 61 °F
Forecast: 56 / 65 °F
Wind: 10 mph from West

Location: Santander / Parayas

Current Time: May 31, 2016 at 2:11:27 AM

Latest Report: May 30, 2016 at 11:00 PM


Visibility: N/A

Pressure: 30.15 "Hg

Humidity: 83%

Dew Point: 55 °F

Location of SantanderLocation

Past Weather in Santander — Graph

°F

Santander Temperature Yesterday

Maximum temperature yesterday: 66 °F (at 3:00 PM)
Minimum temperature yesterday: 57 °F (at 6:00 AM)
Average temperature yesterday: 62 °F

High & Low Weather Summary for the Past Weeks

 TemperatureHumidityPressure
High77 °F (May 28, 12:30 PM)100% (May 17, 6:30 AM)30.30 "Hg (May 17, 6:30 AM)
Low50 °F (May 17, 6:00 AM)42% (May 28, 12:30 PM)29.68 "Hg (May 24, 4:30 PM)
Average61 °F78%30.03 "Hg
* Reported May 15 11:00 PM — May 30 11:00 PM, Santander, Weather by CustomWeather, © 2016

Note: Actual official high and low records may vary slightly from our data, if they occured in-between our weather recording intervals... More about our weather records

Advertising

Santander Weather History for the Previous 24 Hours

Scroll right to see more
 ConditionsComfort  
Time TempWeatherWind HumidityBarometerVisibility
11:00 PM
Mon, May 30
61 °FPassing clouds.10 mph83%30.15 "HgN/A
10:30 PM59 °FScattered clouds.10 mph88%30.15 "HgN/A
10:00 PM61 °FScattered clouds.12 mph83%30.15 "HgN/A
9:30 PM61 °FScattered clouds.13 mph77%30.15 "HgN/A
9:00 PM61 °FScattered clouds.13 mph77%30.12 "HgN/A
8:30 PM63 °FScattered clouds.13 mph73%30.12 "HgN/A
8:00 PM63 °FScattered clouds.12 mph77%30.12 "HgN/A
7:30 PM63 °FScattered clouds.13 mph73%30.12 "HgN/A
6:30 PM63 °FScattered clouds.14 mph73%30.12 "HgN/A
6:00 PM64 °FScattered clouds.13 mph68%30.12 "HgN/A
5:30 PM64 °FScattered clouds.14 mph68%30.12 "HgN/A
5:00 PM64 °FScattered clouds.12 mph68%30.12 "HgN/A
4:30 PM64 °FPassing clouds.13 mph68%30.12 "HgN/A
4:00 PM66 °FPassing clouds.12 mph68%30.12 "HgN/A
3:30 PM66 °FPassing clouds.13 mph68%30.09 "HgN/A
3:00 PM66 °FPassing clouds.13 mph64%30.09 "HgN/A
2:30 PM64 °FPassing clouds.14 mph68%30.09 "HgN/A
2:00 PM64 °FPassing clouds.15 mph64%30.09 "HgN/A
1:00 PM64 °FScattered clouds.17 mph68%30.09 "HgN/A
12:30 PM64 °FScattered clouds.17 mph68%30.09 "HgN/A
12:00 PM63 °FScattered clouds.16 mph73%30.09 "HgN/A
11:30 AM63 °FScattered clouds.18 mph73%30.09 "HgN/A
11:00 AM63 °FBroken clouds.16 mph73%30.09 "HgN/A
10:30 AM61 °FBroken clouds.15 mph77%30.09 "HgN/A
10:00 AM61 °FBroken clouds.12 mph77%30.07 "HgN/A
9:30 AM59 °FSprinkles. Broken clouds.7 mph88%30.07 "HgN/A
9:00 AM59 °FSprinkles. Broken clouds.3 mph82%30.07 "HgN/A
8:30 AM59 °FBroken clouds.5 mph82%30.07 "HgN/A
8:00 AM57 °FScattered clouds.7 mph88%30.07 "HgN/A
7:30 AM57 °FPassing clouds.8 mph82%30.04 "HgN/A
7:00 AM57 °FPassing clouds.9 mph82%30.04 "HgN/A
6:30 AM59 °FPassing clouds.7 mph77%30.04 "HgN/A
6:00 AM57 °FPassing clouds.7 mph82%30.04 "HgN/A
5:30 AM59 °FPassing clouds.7 mph77%30.04 "HgN/A
Weather by CustomWeather, © 2016

See weather overviewHow to use our weather pages